This is the latest recevied weather packets stored in our database for station/object NQ9F. If no packets are shown the sender has not sent any weather packets the latest 1 day(s).
| Time | Temp. | Humidity | Pressure | Rain* | Wind** | Luminosity | Snow |
|---|---|---|---|---|---|---|---|
| 1778057204 | 13.33° C | 83% | 1011.3 hPa | 0 mm | 2.68 m/s, 0° | 0 W/m² | - |
| 1778056901 | 12.78° C | 82% | 1010.8 hPa | 0 mm | 2.24 m/s, 2° | 0 W/m² | - |
| 1778056598 | 12.78° C | 82% | 1010.7 hPa | 0 mm | 2.24 m/s, 4° | 0 W/m² | - |
| 1778056296 | 13.33° C | 82% | 1010.8 hPa | 0 mm | 1.34 m/s, 4° | 0 W/m² | - |
| 1778055992 | 13.33° C | 82% | 1010.7 hPa | 0 mm | 2.68 m/s, 12° | 0 W/m² | - |
| 1778055688 | 13.33° C | 82% | 1010.7 hPa | 0 mm | 5.36 m/s, 0° | 0 W/m² | - |
| 1778055386 | 13.33° C | 82% | 1010.7 hPa | 0 mm | 4.47 m/s, 13° | 0 W/m² | - |
| 1778055084 | 13.33° C | 82% | 1010.9 hPa | 0 mm | 3.13 m/s, 349° | 0 W/m² | - |
| 1778054781 | 13.33° C | 82% | 1011.1 hPa | 0 mm | 3.13 m/s, 18° | 0 W/m² | - |
| 1778054478 | 13.33° C | 82% | 1010.9 hPa | 0 mm | 3.58 m/s, 0° | 0 W/m² | - |
| 1778054175 | 13.33° C | 82% | 1010.9 hPa | 0 mm | 3.13 m/s, 13° | 0 W/m² | - |
| 1778053872 | 13.33° C | 82% | 1011.1 hPa | 0 mm | 2.68 m/s, 39° | 0 W/m² | - |
| 1778053570 | 13.33° C | 82% | 1011.2 hPa | 0 mm | 2.24 m/s, 31° | 0 W/m² | - |
| 1778053267 | 13.33° C | 83% | 1011 hPa | 0 mm | 1.34 m/s, 30° | 0 W/m² | - |
| 1778052964 | 13.33° C | 82% | 1011 hPa | 0 mm | 3.13 m/s, 15° | 0 W/m² | - |
| 1778052661 | 13.33° C | 82% | 1011.1 hPa | 0 mm | 4.47 m/s, 357° | 0 W/m² | - |
| 1778052358 | 13.33° C | 83% | 1011.2 hPa | 0 mm | 1.79 m/s, 10° | 0 W/m² | - |
| 1778052056 | 13.33° C | 83% | 1010.8 hPa | 0 mm | 3.13 m/s, 11° | 0 W/m² | - |
| 1778051754 | 13.33° C | 83% | 1010.8 hPa | 0 mm | 2.24 m/s, 20° | 0 W/m² | - |
| 1778051451 | 13.33° C | 83% | 1010.9 hPa | 0 mm | 3.58 m/s, 10° | 0 W/m² | - |
| 1778051148 | 13.33° C | 83% | 1010.7 hPa | 0 mm | 3.13 m/s, 21° | 0 W/m² | - |
| 1778050845 | 13.33° C | 84% | 1010.4 hPa | 0 mm | 4.92 m/s, 17° | 0 W/m² | - |
| 1778050543 | 13.33° C | 83% | 1010.3 hPa | 0 mm | 4.02 m/s, 21° | 0 W/m² | - |
| 1778050239 | 13.33° C | 83% | 1010 hPa | 0 mm | 2.24 m/s, 13° | 0 W/m² | - |
| 1778049936 | 13.89° C | 83% | 1009.9 hPa | 0 mm | 4.02 m/s, 27° | 0 W/m² | - |
* Rain latest hour (hover to see other rain measurements)
** Current wind speed in m/s (hover to see current wind gust speed)